Location: College Park
(38.9810°N, 76.9370°W)
Time: 09:26:48
(UTC-04:00)

Envisat - Pass Details

Date: 10 February 2018
Orbit: 764 x 766 km, 98.2° (Epoch: 26 May)

Event Time Altitude Azimuth Distance (km) Brightness Sun altitude
Exits shadow 20:43:17 16° 227° (SW) 1,913 5.3 -36.1°
Maximum altitude 20:45:51 23° 266° (W) 1,582 5.1 -36.6°
Drops below altitude 10° 20:49:51 10° 318° (NW) 2,306 6.0 -37.3°
Sets 20:52:38 0° 333° (NNW) 3,237 6.7 -37.9°
